TimeEST,TemperatureF,Dew PointF,Humidity,Sea Level PressureIn,VisibilityMPH,Wind Direction,Wind SpeedMPH,Gust SpeedMPH,PrecipitationIn,Events,Conditions,WindDirDegrees,DateUTC
12:15 AM,14.5,10.8,85,29.16,4.0,North,13.8,25.3,N/A,Snow,Light Snow,350,2013-01-31 05:15:00
12:34 AM,13.8,10.0,85,29.17,7.0,NNW,16.1,23.0,N/A,Snow,Light Snow,340,2013-01-31 05:34:00
1:14 AM,12.6,8.4,83,29.21,3.0,North,11.5,21.9,N/A,Snow,Light Snow,350,2013-01-31 06:14:00
1:34 AM,12.0,7.7,83,29.21,2.5,North,12.7,20.7,N/A,Snow,Light Snow,350,2013-01-31 06:34:00
1:54 AM,11.3,6.8,82,29.23,7.0,NNW,8.1,19.6,N/A,Snow,Light Snow,340,2013-01-31 06:54:00
2:14 AM,10.9,6.3,81,29.24,10.0,NNW,12.7,23.0,N/A,,Overcast,340,2013-01-31 07:14:00
2:34 AM,10.4,6.8,85,29.25,2.0,NNW,16.1,24.2,N/A,Snow,Light Snow,330,2013-01-31 07:34:00
2:54 AM,10.0,5.9,83,29.26,3.0,NW,11.5,21.9,N/A,Snow,Light Snow,320,2013-01-31 07:54:00
3:14 AM,9.5,4.6,81,29.27,10.0,NW,19.6,25.3,N/A,,Overcast,320,2013-01-31 08:14:00
3:34 AM,8.6,3.9,81,29.27,10.0,NNW,13.8,23.0,N/A,,Overcast,330,2013-01-31 08:34:00
3:54 AM,9.0,4.8,83,29.28,10.0,NW,8.1,20.7,N/A,,Overcast,320,2013-01-31 08:54:00
4:14 AM,8.8,3.7,80,29.29,7.0,NW,19.6,26.5,N/A,,Overcast,310,2013-01-31 09:14:00
4:34 AM,8.6,4.1,82,29.30,10.0,NW,10.4,20.7,N/A,,Overcast,320,2013-01-31 09:34:00
4:54 AM,9.1,4.6,82,29.31,10.0,NW,13.8,21.9,N/A,,Overcast,310,2013-01-31 09:54:00
5:14 AM,9.1,4.5,81,29.32,10.0,WNW,13.8,19.6,N/A,,Overcast,300,2013-01-31 10:14:00
5:34 AM,9.3,4.6,81,29.33,10.0,WNW,15.0,23.0,N/A,,Overcast,300,2013-01-31 10:34:00
5:54 AM,9.1,4.6,82,29.34,10.0,WNW,16.1,25.3,N/A,,Overcast,300,2013-01-31 10:54:00
6:14 AM,9.3,5.0,83,29.35,10.0,WNW,15.0,23.0,N/A,,Overcast,300,2013-01-31 11:14:00
6:34 AM,9.3,5.2,83,29.36,7.0,WNW,13.8,21.9,N/A,,Overcast,300,2013-01-31 11:34:00
6:54 AM,9.5,5.4,83,29.37,5.0,WNW,16.1,-,N/A,,Overcast,300,2013-01-31 11:54:00
7:14 AM,9.3,4.8,82,29.39,4.0,NW,12.7,20.7,N/A,,Overcast,310,2013-01-31 12:14:00
7:34 AM,9.0,4.5,82,29.40,5.0,NW,16.1,21.9,N/A,,Haze,320,2013-01-31 12:34:00
7:54 AM,8.6,4.3,83,29.41,4.0,WNW,10.4,23.0,N/A,,Haze,300,2013-01-31 12:54:00
8:14 AM,8.6,3.7,81,29.43,10.0,WNW,17.3,21.9,N/A,,Overcast,300,2013-01-31 13:14:00
8:34 AM,8.6,3.9,81,29.44,10.0,WNW,12.7,20.7,N/A,,Overcast,300,2013-01-31 13:34:00
8:54 AM,9.0,4.5,82,29.46,3.0,WNW,10.4,18.4,N/A,Snow,Light Snow,300,2013-01-31 13:54:00
9:15 AM,9.0,4.8,83,29.47,1.5,WNW,11.5,21.9,N/A,Snow,Light Snow,300,2013-01-31 14:15:00
9:34 AM,9.3,4.8,82,29.47,4.0,WNW,11.5,18.4,N/A,,Overcast,300,2013-01-31 14:34:00
9:54 AM,9.5,5.5,84,29.48,3.0,WNW,11.5,16.1,N/A,,Overcast,300,2013-01-31 14:54:00
10:34 AM,10.4,5.2,79,29.50,7.0,NW,13.8,18.4,N/A,,Overcast,310,2013-01-31 15:34:00
10:54 AM,10.9,5.4,78,29.51,10.0,WNW,12.7,17.3,N/A,,Overcast,290,2013-01-31 15:54:00
11:34 AM,11.8,6.1,78,29.53,4.0,WNW,12.7,18.4,N/A,,Haze,290,2013-01-31 16:34:00
11:59 AM,12.2,6.8,79,29.53,7.0,West,11.5,16.1,N/A,,Overcast,280,2013-01-31 16:59:00
12:14 PM,12.6,6.8,78,29.53,7.0,WNW,6.9,16.1,N/A,,Overcast,290,2013-01-31 17:14:00
12:34 PM,12.9,7.5,79,29.54,5.0,WNW,10.4,18.4,N/A,Snow,Light Snow,300,2013-01-31 17:34:00
12:54 PM,13.5,7.5,77,29.55,10.0,WNW,13.8,19.6,N/A,,Overcast,290,2013-01-31 17:54:00
1:14 PM,13.5,7.5,77,29.55,10.0,NW,10.4,18.4,N/A,,Overcast,310,2013-01-31 18:14:00
1:34 PM,13.6,7.3,76,29.55,7.0,WNW,11.5,18.4,N/A,,Overcast,290,2013-01-31 18:34:00
1:54 PM,14.0,7.9,77,29.56,5.0,West,15.0,20.7,N/A,,Haze,280,2013-01-31 18:54:00
2:14 PM,14.7,8.4,76,29.56,7.0,NW,12.7,20.7,N/A,,Overcast,310,2013-01-31 19:14:00
2:34 PM,15.1,8.6,76,29.57,4.0,WNW,12.7,20.7,N/A,Snow,Light Snow,290,2013-01-31 19:34:00
2:54 PM,14.9,9.0,77,29.58,7.0,WNW,18.4,21.9,N/A,,Overcast,290,2013-01-31 19:54:00
3:14 PM,14.9,8.6,76,29.59,10.0,WNW,12.7,23.0,N/A,,Overcast,300,2013-01-31 20:14:00
3:34 PM,14.9,7.5,73,29.60,10.0,WNW,12.7,26.5,N/A,,Overcast,290,2013-01-31 20:34:00
4:15 PM,14.7,9.5,80,29.62,1.2,WNW,13.8,18.4,N/A,Snow,Light Snow,300,2013-01-31 21:15:00
4:34 PM,14.7,10.6,84,29.63,0.8,NW,11.5,18.4,N/A,Snow,Light Snow,310,2013-01-31 21:34:00
4:54 PM,14.5,9.3,80,29.63,4.0,NW,10.4,-,N/A,,Haze,310,2013-01-31 21:54:00
5:15 PM,14.4,8.8,79,29.65,7.0,NW,8.1,16.1,N/A,,Overcast,310,2013-01-31 22:15:00
5:34 PM,14.0,9.1,81,29.65,5.0,NW,9.2,-,N/A,,Haze,310,2013-01-31 22:34:00
6:15 PM,13.8,8.2,78,29.68,10.0,NW,11.5,18.4,N/A,,Overcast,310,2013-01-31 23:15:00
6:34 PM,13.8,8.4,79,29.69,10.0,NW,8.1,-,N/A,,Overcast,320,2013-01-31 23:34:00
7:15 PM,13.5,8.6,81,29.70,7.0,NW,11.5,18.4,N/A,,Overcast,310,2013-02-01 00:15:00
7:34 PM,13.1,7.7,79,29.70,10.0,NW,9.2,18.4,N/A,,Overcast,320,2013-02-01 00:34:00
7:54 PM,13.1,7.9,80,29.71,10.0,NNW,9.2,16.1,N/A,,Overcast,330,2013-02-01 00:54:00
8:15 PM,13.1,7.7,79,29.72,10.0,NW,10.4,17.3,N/A,,Overcast,320,2013-02-01 01:15:00
8:34 PM,13.1,7.7,79,29.73,10.0,NW,9.2,18.4,N/A,,Overcast,310,2013-02-01 01:34:00
9:15 PM,13.1,8.2,81,29.74,10.0,WNW,11.5,18.4,N/A,,Overcast,300,2013-02-01 02:15:00
9:34 PM,13.1,8.1,80,29.74,10.0,NW,10.4,19.6,N/A,,Overcast,310,2013-02-01 02:34:00
9:54 PM,13.5,8.4,80,29.75,10.0,WNW,11.5,17.3,N/A,,Overcast,300,2013-02-01 02:54:00
10:15 PM,13.5,8.6,81,29.75,10.0,NW,8.1,16.1,N/A,,Overcast,310,2013-02-01 03:15:00
10:34 PM,13.1,8.6,82,29.76,5.0,WNW,10.4,20.7,N/A,Snow,Light Snow,300,2013-02-01 03:34:00
10:54 PM,12.9,9.1,85,29.77,1.8,North,6.9,-,N/A,Snow,Light Snow,350,2013-02-01 03:54:00
11:15 PM,11.8,8.2,85,29.77,2.5,North,5.8,-,N/A,Snow,Light Snow,360,2013-02-01 04:15:00
11:34 PM,11.3,8.2,87,29.78,2.0,North,4.6,-,N/A,Snow,Light Snow,10,2013-02-01 04:34:00
11:54 PM,11.3,7.7,85,29.78,2.0,North,3.5,-,N/A,Snow,Light Snow,10,2013-02-01 04:54:00